Вернуться в каталог

PEGASUS DEB

АктивенPO
NORAD 24529·DEBRIS·🇺🇸 United States

Запущен May 19, 1994 с Vandenberg Space Force Base

Loading…

Ближайшие Пролёты (ближайшие 24 часа)

TLE

СвежийSource: Space-Track

Эпоха: Sep 13, 2026, 20:44 UTC

1 24529U 94029WD  26256.86393416  .00001037  00000-0  94876-4 0  9996
2 24529  81.9752  30.4614 0105462 356.1912 129.6443 14.89808478265480

Отслеживайте PEGASUS DEB в реальном времени с AllMySat

Download on the App Store